Skip Page Navigation
NASA JPL Caltech
NASA Logo - Jet Propulsion Laboratory + View the NASA Portal
+ Center for Near-Earth Object Studies
JPL Home Earth Solar System Stars & Galaxies Technology
JPL Solar System Dynamics
BODIES ORBITS EPHEMERIDES TOOLS PHYSICAL DATA DISCOVERY FAQ SITE MAP
IMPORTANT: The SSD Announcement email list is now available. Major changes are coming in the near future, including possible hostname and/or URL changes. To be notified of such changes, subscribe to this email list.

Please visit this page for more details.


JPL Small-Body Database Browser
Search: [ help ]  
183810 (2004 BQ60)
Classification: Main-belt Asteroid          SPK-ID: 2183810
Ephemeris | Orbit Diagram | Orbital Elements | Mission Design | Physical Parameters | Discovery Circumstances ]

[ show orbit diagram ]
Orbital Elements at Epoch 2458600.5 (2019-Apr-27.0) TDB
Reference: JPL 12 (heliocentric ecliptic J2000)
 Element Value Uncertainty (1-sigma)   Units 
e .1304109994304106 1.1729e-07  
a 2.539563460810427 2.2503e-08 au
q 2.208376451769187 3.0801e-07 au
i 15.99680648468336 1.1418e-05 deg
node 122.5772174233484 1.8781e-05 deg
peri 217.6853744883056 3.3805e-05 deg
M 46.86815198953796 2.6153e-05 deg
tp 2458408.052461565085
(2018-Oct-16.55246157)
0.00010654 TDB
period 1478.21304863982
4.05
1.9647e-05
5.379e-08
d
yr
n .2435372900619803 3.2369e-09 deg/d
Q 2.870750469851667 2.5437e-08 au
  Orbit Determination Parameters
   # obs. used (total)      205  
   data-arc span      8240 days (22.56 yr)  
   first obs. used      1996-02-16  
   last obs. used      2018-09-08  
   planetary ephem.      DE431  
   SB-pert. ephem.      SB431-N16  
   condition code      0  
   norm. resid. RMS      .58606  
   source      ORB  
   producer      Otto Matic  
   solution date      2019-Jul-13 19:14:18  

Additional Information
 Earth MOID = 1.2148 au 
 Jupiter MOID = 2.49193 au 
 T_jup = 3.381 
[ show covariance matrix ]

Ephemeris | Orbit Diagram | Orbital Elements | Mission Design | Physical Parameters | Discovery Circumstances ]

Physical Parameter Table
Parameter Symbol Value Units Sigma Reference Notes
absolute magnitude H 16.4   n/a MPO372297  

183810 (2004 BQ60)          Discovered 2004-Jan-21 by LINEAR at Socorro
Reference: 20080420/Numbers.arcLast Updated: 2008-04-23

Alternate Designations
 2004 BQ60 = 2000 CK138 
Ephemeris | Orbit Diagram | Orbital Elements | Mission Design | Physical Parameters | Discovery Circumstances ]
ABOUT SSD CREDITS/AWARDS PRIVACY/COPYRIGHT GLOSSARY LINKS
FirstGov
(server date/time)  
NASA Home Page
Site Manager:   Ryan S. Park
Webmaster  Alan B. Chamberlin